NOAA 16 DEB, 41160

Orbit data source: Space-Track

NOAA 16 DEB, 41160 is space debris in SSO originally from a launch on Thu, 21 Sep 2000 UTC launched from the Air Force Western Test Range (AFWTR). Debris objects in space refer to the collection of defunct objects orbiting the Earth. Examples of debris include non-operational satellites, rocket bodies, and fragments generated from explosions, collisions, or faulty payload assembly.

Loading next visibility...
Identifier
41160, 2000-055CT
Orbit
SSO
Country
Flag of USUS
Related business
Manufacturer
Unknown
Mission
Spacecraft
Bus & Motor
Unknown
Mass
Unknown
Launch date (UTC)
2000-09-21 (25 years ago)
Launch vehicle
Unknown
Launch site
Air Force Western Test Range (AFWTR)
Object type
Payload
Rocket body
Debris
Shape & HBR
Unknown shape, 0.1 m
Radar Cross Section
Small (<0.1 m²)

Expand to show TLE details & history
Last TLE update: 8 hours ago

TLE from 8 hours ago
0 NOAA 16 DEB
1 41160U 00055CT  25291.07996447  .00027666  00000-0  80347-2 0  9998
2 41160  98.8371  31.2310 0017747 141.7248 218.5205 14.44149115510376
Epoch: 2025-10-18T01:55Z
TLE epoch observation values (Epoch: 2025-10-18T01:55:08.930Z)
Latitude
0.00002°
Longitude
-24.37233°
Altitude
757.667 km
Speed
7.47 km/s
True Right ascension
02h 04m 55s
True Declination
0° 00' 00"
Sunlit
Object was in full shadow at epoch
Visualization orbit readout
Latitude
Unknown
Longitude
Unknown
Altitude
Unknown
Speed
Unknown
Apparent Right ascension
Unknown
Apparent Declination
Unknown
Sunlit
N/A
Visualization observer readout
Local Sidereal Time
04:23:42
Azimuth
Unknown
Elevation
Unknown
Doppler factor
Unknown
Orbital elements
Apogee altitude
754.591 km
Perigee altitude
729.319 km
Semi-major axis
7,120.092 km
Eccentricity
0.00177
Inclination
98.8371°
RAAN
31.231°
Arg. of periapsis
141.7248°
True anomaly
218.39406°
Mean anomaly
218.5205°
Eccentric anomaly
218.45726°
Mean motion
3.61256 °/min
Orbital period
99.65 mins
BSTAR
0.0080347
Loading maneuver chart data...
Computing Atmospheric mass density...
Loading historical data...
Loading historical data...
Loading historical data...
Loading historical data...
Loading historical data...
Loading historical data...
Loading historical data...

Documentation

Showing up to 5 results
|